KAZEOSAT 2              
1 40010U 14033A   19266.04975364  .00000034  00000-0  10866-4 0  9990
2 40010  97.8268 163.1667 0017594  97.1276 263.1951 14.82073013284566
HODOYOSHI-4             
1 40011U 14033B   19266.13323991  .00000056  00000-0  13870-4 0  9996
2 40011  97.8030 156.8103 0028163  95.9072 264.5357 14.81126410284308
UNISAT-6                
1 40012U 14033C   19265.66407646  .00000117  00000-0  24677-4 0  9999
2 40012  97.7439 128.0786 0058988 146.9952 213.4962 14.74007727282822
DEIMOS-2                
1 40013U 14033D   19266.18349168  .00000123  00000-0  20880-4 0  9991
2 40013  97.8304 168.6112 0001934 103.3947 256.7503 14.84564175285064
BUGSAT-1 (TITA)         
1 40014U 14033E   19266.13784366 -.00000012  00000-0  45934-5 0  9996
2 40014  98.0223 215.8798 0032780 100.2246 260.2685 14.95307425286915
HODOYOSHI-3             
1 40015U 14033F   19266.20062649 -.00000039  00000-0  16154-5 0  9999
2 40015  97.7719 146.3635 0038476 110.5121 250.0227 14.78549099283826
SAUDISAT 4              
1 40016U 14033G   19265.89112884 -.00000004  00000-0  66416-5 0  9999
2 40016  97.7476 134.3364 0049352 134.4176 226.1090 14.75251596283183
TABLETSAT-AURORA        
1 40017U 14033H   19266.10958710 -.00000287  00000-0 -21446-4 0  9998
2 40017  97.9896 206.6379 0024447 107.9272 252.4628 14.93374353286528
APRIZESAT 9             
1 40018U 14033J   19266.13889291  .00000019  00000-0  11047-4 0  9996
2 40018  97.7323 115.6697 0071468 177.3687 182.7910 14.69942936282111
APRIZESAT 10            
1 40019U 14033K   19266.13735166 -.00000001  00000-0  81984-5 0  9998
2 40019  97.7375 106.1876 0083679 203.3271 156.4129 14.67003861281605
BRITE-CA1 (TORONTO)     
1 40020U 14033L   19266.15071155  .00000035  00000-0  14429-4 0  9998
2 40020  97.7409 104.6122 0086725 208.0749 151.5766 14.66588430281432
DUCHIFAT-1              
1 40021U 14033M   19264.79576301  .00000329  00000-0  39401-4 0  9993
2 40021  97.9231 189.7033 0014371  95.2416 265.0442 14.90683217285711
PACE                    
1 40022U 14033N   19265.89102975  .00000129  00000-0  19852-4 0  9994
2 40022  97.9043 185.2373 0014777 104.4529 255.8328 14.88684052285590
FLOCK 1C-10             
1 40023U 14033P   19264.38176558  .00000390  00000-0  46541-4 0  9991
2 40023  97.9213 187.2315 0014007 105.5590 254.7174 14.89803565285471
NANOSATC-BR1            
1 40024U 14033Q   19265.34300107  .00000285  00000-0  35536-4 0  9993
2 40024  97.9117 187.4271 0013620  97.1630 263.1136 14.89889990285680
QB50P1                  
1 40025U 14033R   19266.00092223  .00000228  00000-0  30205-4 0  9990
2 40025  97.9030 185.5193 0013852 100.9733 259.3043 14.88983530285656
FLOCK 1C-7              
1 40026U 14033S   19264.85851457  .00000442  00000-0  51052-4 0  9995
2 40026  97.9280 189.7699 0012516  98.4989 261.7648 14.90560042285640
FLOCK 1C-1              
1 40027U 14033T   19265.45920530  .00000443  00000-0  51971-4 0  9993
2 40027  97.9244 188.8344 0013981  99.7183 260.5614 14.89858888285641
POPSAT-HIP-1            
1 40028U 14033U   19266.18168660  .00000200  00000-0  27376-4 0  9996
2 40028  97.9078 186.2822 0015059  98.8026 261.4876 14.88819052285654
FLOCK 1C-2              
1 40029U 14033V   19265.80554766  .00000395  00000-0  46993-4 0  9992
2 40029  97.9230 188.9710 0015135  97.2075 263.0864 14.89895517285692
DTUSAT-2                
1 40030U 14033W   19264.54459459  .00000154  00000-0  22546-4 0  9998
2 40030  97.8940 182.0638 0013313 101.3162 258.9552 14.88571316285363
FLOCK 1C-4              
1 40031U 14033X   19265.83065427  .00000246  00000-0  31761-4 0  9991
2 40031  97.9236 188.6786 0015870  94.8609 265.4421 14.89492043285662
QB50P2                  
1 40032U 14033Y   19265.36044254  .00000164  00000-0  23701-4 0  9999
2 40032  97.8948 182.8778 0013298  99.6161 260.6558 14.88516014285478
FLOCK 1C-11             
1 40033U 14033Z   19265.84329386  .00000302  00000-0  36425-4 0  9996
2 40033  97.9327 192.4167 0013624  85.4041 274.8732 14.90902689285889
ANTELSAT                
1 40034U 14033AA  19266.16083373  .00000146  00000-0  28865-4 0  9991
2 40034  97.7471 129.1765 0059414 144.0001 216.5233 14.74135174282889
FLOCK 1C-9              
1 40035U 14033AB  19265.36608081  .00000384  00000-0  45794-4 0  9996
2 40035  97.9278 189.3412 0013233  90.1377 270.1357 14.89945881285639
FLOCK 1C-6              
1 40036U 14033AC  19265.39599179  .00000477  00000-0  55294-4 0  9996
2 40036  97.9301 189.8700 0013381  90.5228 269.7523 14.90050999285655
PERSEUS-M2              
1 40037U 14033AD  19265.88600821  .00000064  00000-0  13433-4 0  9999
2 40037  97.8860 179.2413 0015736 110.7734 249.5169 14.86476675285269
FLOCK 1C-5              
1 40038U 14033AE  19264.74766824  .00000495  00000-0  57161-4 0  9994
2 40038  97.9273 188.7740 0015463  92.2292 268.0696 14.90016404285555
PERSEUS-M1              
1 40039U 14033AF  19265.96165110  .00000049  00000-0  11837-4 0  9996
2 40039  97.8840 178.3423 0015615 108.2425 252.0492 14.86096958285209
FLOCK 1C-8              
1 40040U 14033AG  19265.34641553  .00000545  00000-0  59531-4 0  9994
2 40040  97.9444 194.9280 0014174  72.4302 287.8463 14.91925543285922
FLOCK 1C-3              
1 40041U 14033AH  19266.09952830  .00000411  00000-0  48857-4 0  9992
2 40041  97.9251 189.4295 0014632  87.9075 272.3817 14.89668056285709
POLYITAN-1              
1 40042U 14033AJ  19264.53730863  .00000224  00000-0  29966-4 0  9992
2 40042  97.9110 184.4202 0016044  96.4128 263.8916 14.88698468285344
TIGRISAT                
1 40043U 14033AK  19266.06942975  .00000073  00000-0  18135-4 0  9990
2 40043  97.7434 129.7328 0060729 144.5799 215.9467 14.74291870282809
LEMUR-1                 
1 40044U 14033AL  19266.14682459  .00000091  00000-0  20749-4 0  9992
2 40044  97.7430 129.2924 0059828 146.1154 214.3900 14.74124011282799
AEROCUBE 6A             
1 40045U 14033AM  19266.14045392  .00000179  00000-0  32972-4 0  9990
2 40045  97.7666 134.0050 0058543 136.6925 223.8908 14.75425350282781
AEROCUBE 6B             
1 40046U 14033AN  19266.14689036  .00000185  00000-0  33726-4 0  9995
2 40046  97.7595 133.5564 0057914 136.0293 224.5546 14.75407696282925
SL-24 R/B               
1 40047U 14033AP  19264.43517973  .00000001  00000-0  14190-4 0  9997
2 40047  97.8988 185.3654 0570706  68.7755 297.3362 13.61407188261180
SL-24 DEB               
1 40048U 14033AQ  19265.71705740  .00009476  00000-0  19853-3 0  9996
2 40048  98.0052 310.1883 0013360 175.3565 184.7808 15.45587190292410
SL-24 PLAT              
1 40049U 14033AR  19265.51017517  .00000150  00000-0  22420-4 0  9998
2 40049  97.9071 184.1659 0014243 102.7005 257.5804 14.88052925285296